sat.trackr.live / text

‹ back to catalog

STARLINK-31478

NORAD 59188 · 2024-045L

PAYLOAD ACTIVE UNKNOWN

§ Identity

Operator
Country
US
Launch date
2024-03-10
Launch site
AFETR
Launch vehicle
Mass (kg)
RCS (m²)

Purposes: comms

External: N2YO · Heavens-Above · Gunter

§ Orbital elements

Epoch: 2026-05-24T22:35:21.732864Z

Period
94.27 min
Inclination
43.0009°
Eccentricity
0.0002003
Mean motion
15.27603780 rev/d
Perigee alt
481.6 km
Apogee alt
484.4 km
Semi-major
6,861.1 km
B*
1.2822e-3
RAAN
21.8581°
Arg perigee
263.4633°
Mean anomaly
96.5991°
Rev number
12,482

§ Raw data

STARLINK-314781 59188U 24045L   26144.94122376  .00035216  00000+0  12822-2 0  99902 59188  43.0009  21.8581 0002003 263.4633  96.5991 15.27603780124821

JSON: /api/v1/satellites/59188 · /tle

For live sub-satellite position, see the globe view (requires WebGL).

§ Visibility from observer

Set your observer location to see the next 7 days of passes ≥ 10°. The values pass through the URL so the page stays shareable.

No JS? Fill the form by hand. The geolocation button needs JavaScript.